Regional Weather Roundup
Issued by NWS Glasgow, MT

Home | Current Version | Previous Version | Text Only | Print | Product List | Glossary On
Versions: 1 2 3 4 5 6 7 8 9 10 11 12 13 14 15 16 17 18 19 20 21 22 23 24 25 26 27
000
ASUS45 KGGW 250215
RWRGGW
HOURLY WEATHER ROUNDUP FOR NORTHEAST MONTANA
NATIONAL WEATHER SERVICE GLASGOW MONTANA
800 PM MDT FRI OCT 24 2014

NOTE: "FAIR" INDICATES FEW OR NO CLOUDS BELOW 12,000 FEET WITH NO
SIGNIFICANT WEATHER AND/OR OBSTRUCTIONS TO VISISBILITY.

NORTHEAST MONTANA


CITY           SKY/WX    TMP DP  RH WIND       PRES   REMARKS
GLASGOW        CLEAR     45  28  51 SW9       30.04R
PLENTYWOOD       N/A     46  28  49 W7          N/A
WOLF POINT     PTCLDY    43  28  55 NW5       30.05R
JORDAN           N/A     45  32  60 W3        30.07R
WINNETT          N/A     52  38  58 SW5         N/A
SIDNEY         PTCLDY    45  27  49 W7        30.06R
GLENDIVE       MOCLDY    46  32  57 W7        30.07R
MALTA            N/A     44  32  62 W3          N/A
SCOBEY           N/A     41  21  45 W5        30.01R

FORT PECK REPORTS


CITY           SKY/WX    TMP DP  RH WIND       PRES   REMARKS
FORT PECK        N/A     51  30  44 W6          N/A
THE PINES        N/A     51  25  36 NW6         N/A

SOUTHEAST MONTANA


CITY           SKY/WX    TMP DP  RH WIND       PRES   REMARKS
BILLINGS       CLOUDY    53  35  50 E6        30.09S
MILES CITY     CLOUDY    51  33  50 SW9       30.08R
BAKER          PTCLDY    47  28  47 W9        30.09R
LIVINGSTON     MOCLDY    51  39  63 SW5       30.08S

CENTRAL MONTANA


CITY           SKY/WX    TMP DP  RH WIND       PRES   REMARKS
HAVRE          MOCLDY    49  30  48 W7        30.06R
LEWISTOWN      CLOUDY    50  38  63 CALM      30.10R
GREAT FALLS    CLOUDY    47  37  68 SW6       30.07R
CUT BANK       CLOUDY    47  31  53 W10       30.05F
HELENA         CLOUDY    50  43  77 CALM      30.08S
BUTTE          CLOUDY    44  42  93 SE6       30.11S
BOZEMAN        MOCLDY    44  41  89 SE3       30.09F

WESTERN MONTANA


CITY           SKY/WX    TMP DP  RH WIND       PRES   REMARKS
MISSOULA       LGT RAIN  47  47 100 CALM      30.10S
KALISPELL      NOT AVBL

NORTH DAKOTA


CITY           SKY/WX    TMP DP  RH WIND       PRES   REMARKS
WILLISTON      CLEAR     44  27  51 W8        30.01R
DICKINSON      MOCLDY    42  30  62 W8        30.04R
MINOT          CLEAR     53  28  38 W14       29.95R
BISMARCK       PTCLDY    51  32  48 W8        30.01R

SOUTHERN SASKATCHEWAN


CITY           SKY/WX    TMP DP  RH WIND       PRES   REMARKS
REGINA         PTCLDY    39  32  75 W10       29.95R
ESTEVAN        PTCLDY    45  30  57 W12       29.96R
SWIFT CURRENT  CLEAR     36  28  75 SW8       29.99R




USA.gov is the U.S. government's official web portal to all federal, state and local government web resources and services.